SCP
0 0 0 0 1 1 1 1 1 1 1 0 0 0 0 0 0 0 0 0 0 0 0 0 0 0 0 0 0 0 0 0 0 0 0 0 0 0 0 0 0 0 0
1 0 0 1 1 1 1 1 1 1 1 0 0 0 0 0 0 0 0 0 0 0 0 0 0 0 0 0 0 0 0 0 0 0 0 0 0 0 0 0 0 0 0
1 1 1 1 1 1 1 1 1 1 1 1 0 0 0 0 0 1 0 0 0 0 0 0 0 0 0 0 0 0 0 0 0 0 0 0 0 0 0 0 0 0 0
1 1 1 1 1 1 1 1 1 1 1 1 1 0 0 0 1 1 1 0 0 0 0 0 0 0 0 0 0 0 0 0 0 0 0 0 0 0 0 0 0 0 0
1 1 1 1 1 1 1 1 1 1 1 1 1 1 0 0 0 1 1 0 0 0 0 0 0 0 0 0 0 0 0 0 0 0 0 0 0 0 0 0 0 0 0
1 1 1 1 1 1 1 1 1 1 1 1 1 1 1 1 1 1 1 0 0 0 0 0 0 0 0 0 0 0 0 0 0 0 0 0 0 0 0 0 0 0 0
1 1 1 1 1 1 1 1 1 1 1 1 1 1 1 1 1 1 1 0 0 1 1 1 0 0 0 0 0 0 0 0 0 0 0 0 0 0 0 0 0 0 0
1 1 1 1 1 1 1 1 1 1 1 1 1 1 1 1 1 1 1 0 1 1 1 1 0 0 0 0 0 0 0 0 0 0 0 0 0 0 0 0 0 0 0
1 1 1 1 1 1 1 1 1 1 1 1 1 1 1 1 1 1 1 1 1 1 1 1 0 0 0 0 0 0 0 0 0 0 0 0 0 0 0 0 0 0 0
1 1 1 1 1 1 1 1 1 1 1 1 1 1 1 1 1 1 1 1 1 1 1 1 0 0 0 0 0 0 0 0 0 0 0 0 0 0 0 0 0 0 0
1 1 1 1 1 1 1 1 1 1 1 1 1 1 1 1 1 1 1 1 1 1 1 0 0 0 0 0 0 0 0 0 0 0 0 0 0 0 0 0 0 0 0
1 1 1 1 1 1 1 1 1 1 1 1 1 1 1 1 1 1 1 1 1 1 1 0 0 0 0 0 1 1 1 0 0 0 0 0 0 0 0 0 0 0 0
1 1 1 1 1 1 1 1 1 1 1 1 1 1 1 1 1 1 1 1 1 1 1 1 1 0 0 1 1 1 1 1 0 0 0 0 0 0 0 0 0 0 0
1 1 1 1 1 1 1 1 1 1 1 1 1 1 1 1 1 1 1 1 1 1 1 1 1 1 1 1 1 1 1 1 1 0 0 0 0 0 0 0 0 0 0
1 1 1 1 2 2 2 2 1 1 2 2 2 2 1 1 1 1 1 1 1 1 1 1 1 1 1 1 1 1 1 1 1 1 1 0 0 0 0 0 0 0 0
1 1 2 2 2 2 2 2 2 2 2 2 2 2 2 2 2 1 1 1 1 1 1 1 1 1 1 1 0 1 1 1 1 1 1 1 0 0 0 0 0 0 0
1 1 2 2 2 2 2 2 2 2 2 2 2 2 2 2 2 2 2 2 2 2 2 1 1 1 1 0 0 0 1 1 1 1 1 1 1 0 0 0 0 0 0
1 1 1 2 2 2 2 2 2 2 2 2 2 2 2 2 2 2 2 2 2 2 2 2 1 1 1 0 0 0 0 1 1 1 1 1 1 1 0 0 0 0 0
2 2 2 2 2 2 2 2 2 2 2 2 2 2 2 2 2 2 2 2 2 2 2 2 2 1 1 0 0 0 0 1 1 1 1 1 1 1 0 0 0 0 0
2 2 2 2 2 2 2 2 2 2 2 2 2 2 2 2 2 2 2 2 2 2 2 2 2 2 1 1 0 0 0 1 1 1 1 1 1 0 0 0 0 0 0
2 2 2 2 2 2 2 2 2 2 2 2 2 2 2 2 2 2 2 3 3 2 2 2 2 2 1 1 0 0 0 1 1 1 1 1 0 0 0 0 0 0 0
2 2 2 2 2 2 2 2 2 2 2 2 2 2 2 2 2 2 3 3 3 3 2 2 2 2 1 1 0 0 0 0 0 1 1 0 0 0 0 0 0 0 0
2 2 2 2 2 2 2 2 2 2 2 2 2 2 2 2 2 3 3 3 3 2 2 2 2 2 1 1 0 0 0 0 0 0 0 0 0 0 0 0 0 0 0
2 2 2 2 2 2 2 2 2 2 2 2 2 2 2 2 2 2 2 2 2 2 2 2 2 1 1 1 0 0 0 0 0 0 0 0 0 0 0 0 0 0 0
2 2 2 2 2 2 2 2 2 2 2 2 2 2 2 2 2 2 2 1 1 1 1 2 1 1 1 1 0 0 0 0 0 0 0 0 0 0 0 0 0 0 0
2 2 2 2 1 1 1 1 1 2 2 1 1 1 1 1 1 1 1 1 1 1 1 1 1 1 1 0 0 0 0 0 0 0 0 0 0 0 0 0 0 0 0
Wind_Speed
12 12 11 11 11 10 8 7 6 5 3 2 2 2 2 2 2 2 3 2 1 1 1 2 1 1 1 2 2 2 1 1 2 2 2 2 2 2 2 3 3 3 3
13 12 11 10 11 10 9 8 6 6 5 3 2 2 2 2 2 2 2 2 2 1 2 2 1 1 1 1 2 2 1 1 1 2 2 1 2 2 2 2 2 3 2
15 13 12 11 11 11 10 8 8 7 6 5 3 2 2 1 2 3 2 2 2 2 2 2 1 1 1 1 1 1 2 1 0 1 1 1 1 1 1 2 2 2 2
15 15 13 12 11 11 10 8 8 7 6 5 4 4 3 2 2 2 2 3 2 2 2 2 1 1 1 1 1 2 0 1 1 0 1 1 2 2 2 1 1 2 2
14 15 14 12 11 12 11 9 8 7 6 5 4 3 2 3 3 3 3 3 2 2 2 2 1 1 1 1 0 1 0 0 0 1 1 1 1 2 2 2 2 1 1
13 13 13 13 11 11 11 11 9 7 6 5 4 3 2 2 3 3 3 3 2 2 2 2 1 1 1 1 1 0 1 0 0 1 0 0 1 1 1 2 3 2 1
13 12 12 13 11 11 11 11 11 9 7 7 5 4 3 3 3 3 3 2 2 2 2 2 2 1 1 1 1 1 1 1 1 1 1 1 1 1 1 2 2 2 2
13 12 11 11 11 12 11 11 11 10 9 7 6 4 4 4 3 4 2 2 2 2 3 3 2 2 1 1 1 1 1 1 1 1 0 0 1 0 1 2 3 2 2
13 14 13 12 12 12 11 11 11 10 9 8 6 5 5 4 3 3 3 1 1 3 4 3 3 2 1 0 1 1 0 1 1 1 1 1 1 1 1 2 2 2 2
12 13 13 12 12 11 11 10 10 9 8 8 7 7 5 5 4 3 3 2 2 2 2 2 2 2 2 1 0 0 0 1 1 1 1 0 0 0 1 2 2 1 2
11 12 12 12 12 12 11 11 11 10 9 8 6 5 6 5 4 3 3 2 2 2 2 1 1 1 1 1 0 1 0 1 1 1 1 1 1 0 0 1 1 1 2
10 10 11 12 12 12 12 11 11 11 10 8 7 6 6 6 5 4 4 4 3 3 2 2 1 1 1 1 0 0 1 0 0 0 1 1 1 1 0 0 0 1 2
8 8 9 9 9 9 9 10 11 11 11 10 9 7 6 6 5 4 4 4 3 3 2 2 2 1 1 1 0 1 1 0 1 1 1 1 1 1 1 0 1 1 2
8 7 8 8 7 7 7 8 8 9 10 10 9 8 7 6 5 4 4 4 4 3 3 2 2 2 1 0 0 0 1 1 1 1 1 2 1 1 1 0 1 1 2
8 7 6 6 6 6 6 7 6 6 6 7 8 8 7 6 5 5 4 4 4 5 3 3 2 2 2 1 1 1 2 1 1 1 1 3 4 4 2 1 1 1 1
7 7 6 6 6 6 6 6 6 6 6 6 6 6 6 6 6 5 5 4 4 4 3 3 3 3 1 2 3 1 1 1 1 1 1 3 3 4 4 4 3 1 1
5 6 5 6 5 5 5 5 6 6 5 5 5 5 6 6 5 6 5 4 4 4 4 3 3 3 3 4 3 2 1 1 1 1 1 1 2 3 2 3 3 2 2
3 3 5 6 5 5 6 4 5 6 6 6 5 4 5 5 4 4 4 4 4 3 3 3 3 3 3 4 3 1 2 2 1 1 1 1 2 2 1 2 2 1 0
3 2 2 4 5 5 5 6 5 4 5 5 5 5 5 5 5 4 4 4 4 4 4 3 3 3 3 4 4 2 2 2 2 2 1 1 2 3 2 1 1 1 1
3 2 2 3 4 4 4 5 5 5 5 5 5 5 5 5 5 5 4 4 4 4 4 3 3 3 3 4 4 3 3 3 3 2 2 2 2 3 3 2 2 2 2
4 4 4 3 3 3 3 3 3 3 3 3 3 3 3 3 4 4 3 3 4 4 4 3 3 4 4 6 6 5 2 2 2 2 2 3 5 4 4 3 2 3 2
4 4 4 4 3 4 4 3 2 2 3 3 3 3 3 3 3 3 3 3 3 3 4 3 3 3 4 5 6 6 4 2 2 2 0 2 5 5 5 4 3 3 2
3 3 3 4 3 3 3 3 2 3 3 3 2 2 2 2 3 4 4 3 3 3 3 3 3 3 2 3 5 6 6 5 3 2 1 2 4 4 4 6 5 4 3
2 3 3 3 3 3 3 3 3 3 3 3 2 2 2 2 2 2 3 3 3 3 3 3 2 2 2 2 2 3 3 3 3 2 1 3 4 4 3 3 4 4 4
2 2 2 3 3 3 3 3 3 3 4 3 3 3 3 3 2 2 1 2 1 2 2 2 2 2 2 2 3 3 2 3 2 2 2 3 3 3 3 3 3 4 4
2 2 2 3 3 3 3 3 3 3 4 3 3 3 3 3 3 3 2 3 1 2 3 2 2 1 2 5 5 4 3 2 3 2 3 4 4 4 4 4 4 4 4
Wind_Direction
160 157 160 155 151 149 147 151 150 142 150 147 147 153 146 144 134 133 123 130 123 112 116 83 119 111 106 108 116 119 129 128 125 110 91 80 83 89 98 97 98 99 105
159 159 163 159 155 151 152 154 158 161 172 156 143 151 135 150 139 115 120 131 130 166 144 113 116 101 109 115 130 134 125 177 156 141 134 126 105 53 80 96 102 93 104
163 162 167 166 161 157 163 168 165 166 174 164 166 153 134 162 128 134 137 127 104 91 71 111 119 100 117 125 147 161 169 194 254 123 138 144 132 123 83 74 92 102 96
165 166 170 170 165 162 163 159 157 160 164 170 182 181 171 164 147 140 142 138 125 129 138 129 132 118 109 115 211 145 228 168 227 235 188 151 143 149 139 109 110 113 107
167 166 168 166 164 163 162 157 152 156 160 173 183 192 183 166 150 141 141 147 154 157 144 137 134 127 133 137 80 83 308 217 228 253 207 154 154 148 151 163 163 137 135
164 161 160 158 163 163 161 159 155 159 165 176 184 189 196 157 150 156 160 173 169 166 159 150 150 156 142 142 181 207 213 219 288 303 290 203 177 176 149 152 160 151 153
155 158 160 161 164 166 164 159 159 164 171 180 184 183 187 176 179 185 183 192 166 167 160 141 141 148 150 180 182 210 220 200 206 243 271 301 311 152 128 142 149 142 155
153 157 163 163 164 167 163 159 161 167 173 179 181 180 184 192 191 193 206 197 166 153 139 136 145 148 165 185 160 232 204 167 205 237 191 274 297 99 128 146 146 153 160
156 160 167 170 168 167 162 161 160 165 173 175 171 175 185 190 179 168 191 192 163 150 142 145 146 145 145 125 158 220 123 125 150 214 199 225 211 151 153 153 174 171 167
157 160 168 171 166 165 160 159 159 164 170 172 177 177 178 182 182 177 164 148 120 99 131 144 154 158 154 155 183 216 138 154 177 203 187 214 164 176 168 184 212 205 172
156 156 164 168 162 162 163 161 159 163 170 172 172 169 166 174 172 172 171 159 143 143 149 163 163 151 129 131 166 192 138 158 187 210 172 174 154 156 223 196 215 170 142
148 152 158 159 162 166 167 165 165 169 173 171 167 172 167 164 174 177 173 163 161 164 168 180 179 173 148 141 146 150 103 156 208 223 158 161 149 146 322 337 114 122 140
135 141 147 153 158 163 164 167 171 173 174 170 169 171 174 174 174 168 169 165 167 172 175 177 175 173 167 159 144 124 107 92 104 103 151 135 135 138 95 17 102 134 138
132 139 142 144 148 150 151 159 171 174 173 169 170 170 176 175 172 171 170 168 171 175 183 183 175 181 166 117 9 152 134 103 84 73 69 79 88 91 87 139 115 128 131
139 138 140 143 149 151 154 161 167 168 166 163 167 170 172 171 170 172 173 176 182 185 181 177 175 176 172 169 157 203 150 139 131 106 92 85 87 78 61 72 80 117 138
145 144 142 139 152 159 163 163 167 163 154 161 170 167 167 171 175 173 174 179 182 180 179 177 175 188 186 104 99 73 110 121 144 146 130 128 120 105 93 84 80 93 165
143 145 147 148 158 157 160 164 161 153 156 167 169 166 168 174 178 181 177 180 182 180 182 182 167 150 125 124 111 95 192 176 175 172 181 213 124 132 127 114 107 92 128
111 138 158 158 163 163 163 150 153 151 161 165 169 169 173 175 174 175 177 181 182 181 188 187 172 165 164 166 155 167 223 200 181 182 163 138 130 130 114 167 164 178 118
120 129 163 164 157 158 153 145 148 161 164 165 167 176 177 176 179 185 185 183 179 182 190 183 182 176 168 183 177 186 218 201 201 196 189 169 135 121 107 167 180 188 204
120 122 124 123 131 138 146 152 158 166 172 173 174 176 176 179 180 182 188 182 181 188 193 190 185 171 163 180 183 199 234 213 201 195 175 150 146 154 165 216 217 218 223
109 110 104 101 110 121 123 131 147 162 162 153 157 159 160 167 172 171 180 185 192 190 193 186 186 179 172 180 188 190 231 251 237 207 194 169 166 183 200 227 242 229 244
99 103 108 103 102 112 122 127 129 127 123 131 140 153 157 182 168 152 164 178 189 190 200 198 202 191 171 176 185 191 215 255 285 277 219 157 173 194 211 223 228 229 246
105 106 115 113 111 116 126 132 119 113 117 124 135 145 161 181 154 166 176 186 191 202 206 201 204 195 177 170 180 195 218 231 255 302 48 157 188 203 220 222 223 224 232
105 109 119 127 123 126 124 119 119 126 132 142 151 165 184 179 160 175 186 198 193 203 212 214 203 187 174 163 169 188 204 212 222 253 195 187 208 230 236 220 217 224 233
111 118 123 129 128 125 126 127 132 144 153 162 173 191 201 184 171 181 179 200 176 196 214 225 205 211 198 177 172 189 202 213 205 200 205 209 205 218 224 222 218 221 229
126 123 125 130 127 130 133 134 141 153 164 176 192 200 198 184 185 180 154 47 74 133 122 112 154 163 158 159 160 169 184 199 175 192 221 222 216 223 225 225 225 220 222